Regional Weather Roundup
Issued by NWS

Home | Current Version | Previous Version | Text Only | Print | Product List | Glossary On
Versions: 1 2 3 4 5 6 7 8 9 10 11 12 13 14 15 16 17 18 19 20 21 22 23 24 25 26 27 28 29 30 31 32 33 34 35 36 37 38 39 40 41 42 43 44 45 46 47 48 49 50
000
ASUS43 KDTX 060501
RWRMI
MICHIGAN HOURLY REGIONAL WEATHER ROUNDUP
NATIONAL WEATHER SERVICE DETROIT/PONTIAC MI
1200 AM EST FRI MAR 06 2015

NOTE: "FAIR" INDICATES FEW OR NO CLOUDS BELOW 12,000 FEET WITH NO
SIGNIFICANT WEATHER AND/OR OBSTRUCTION TO VISIBILITY.

MIZ047>049-052>055-059>063-066>070-074>076-081>083-060600-
SOUTHEAST LOWER MICHIGAN

CITY           SKY/WX    TMP DP  RH WIND       PRES   REMARKS
ADRIAN         MOCLDY     3  -2  79 W5        30.51S WCI  -6
ALMA           PTCLDY     2  -2  81 SW3       30.48F
ANN ARBOR      MOCLDY    -5 -10  79 SW3       30.49F
BAD AXE        PTCLDY     2  -4  75 SW5       30.46F WCI  -7
CARO           PTCLDY    -5  -9  81 CALM      30.48S
DETROIT CITY   PTCLDY    10  -2  58 CALM      30.51S
DETROIT        PTCLDY     7  -2  66 S5        30.52S WCI  -2
FLINT          MOCLDY     5  -3  69 SW6       30.49S WCI  -6
GROSSE ILE     PTCLDY     7  -2  66 S5        30.51S WCI  -2
HILLSDALE      PTCLDY     6  -1  72 CALM      30.46F
HOWELL         PTCLDY     5  -1  73 SW3       30.47F

CITY           SKY/WX    TMP DP  RH WIND       PRES   REMARKS
JACKSON        PTCLDY     2  -3  80 CALM      30.48F
LAMBERTVILLE   MOCLDY     5  -2  72 CALM      30.52S
LANSING        PTCLDY     6   0  76 SW8       30.49F WCI  -7
LAPEER         FAIR      -7 -12  81 CALM      30.48S
MASON          MOCLDY     3  -2  80 CALM      30.48F
MONROE         PTCLDY     3  -2  78 CALM      30.50F
MT. CLEMENS    PTCLDY     1  -6  69 S3        30.48S
PONTIAC        MOCLDY     1  -6  72 CALM      30.47S
PORT HOPE        N/A      7  -4  60 SW7       30.45R WCI  -5
PORT HURON     MOCLDY    -4  -9  77 CALM      30.50S
TRI CITIES     PTCLDY     4  -3  73 W7        30.49S WCI  -8
TROY           PTCLDY    11   1  62 CALM      30.51F
SAGINAW HB     PTCLDY     9   0  66 W6        30.49S WCI  -1
$$
MIZ043>046-050>051-056>058-064>065-071>073-077>080-060600-
SOUTHWEST LOWER MICHIGAN

CITY           SKY/WX    TMP DP  RH WIND       PRES   REMARKS
BATTLE CREEK   PTCLDY     7  -1  70 S5        30.48F WCI  -2
BENTON HARBOR  PTCLDY     2   0  91 CALM      30.51F
BIG RAPIDS     PTCLDY    -1  -5  85 CALM      30.43S
COLDWATER      FAIR       1  -3  84 CALM      30.49F
FREMONT        CLOUDY     5  -1  75 CALM      30.45F
HOLLAND        PTCLDY     3  -2  79 CALM      30.49F
GRAND RAPIDS   PTCLDY     2  -4  76 S7        30.48F WCI -11
IONIA          FAIR       3  -1  81 SW6       30.47F WCI  -8
KALAMAZOO      PTCLDY     6   2  83 S3        30.48F
LUDINGTON      PTCLDY    16   4  61 W7        30.45F WCI   6
MARSHALL       MOCLDY     2  -1  85 CALM      30.48F
MOUNT PLEASANT PTCLDY     5  -1  75 CALM      30.46F
MUSKEGON       CLOUDY    12   4  70 S5        30.48F WCI   4
SOUTH HAVEN    PTCLDY     6   1  82 S3        30.50F
$$
MIZ016>042-060600-
NORTHERN LOWER MICHIGAN

CITY           SKY/WX    TMP DP  RH WIND       PRES   REMARKS
ALPENA         PTCLDY    -9 -15  75 SW3       30.41F
BEAVER ISLAND  CLEAR      9   2  72 S8        30.36F WCI  -3
BELLAIRE       PTCLDY    -5  -9  84 CALM      30.42F
CADILLAC       PTCLDY     2  -2  83 SW7       30.36F WCI -10
CHARLEVOIX     CLEAR      7   1  76 S7        30.41F WCI  -4
FRANKFORT      CLEAR     16   4  60 W9        30.41F WCI   4
GAYLORD        PTCLDY     1  -3  83 SW7       30.33F WCI -12
GRAYLING       FLURRIES   2  -3  79 SW3       30.38F
HARBOR SPRINGS PTCLDY    -4  -8  84 CALM      30.38F
HOUGHTON LAKE  PTCLDY     2  -4  76 SW5       30.39F WCI  -8
MANISTEE       PTCLDY     9   0  66 CALM      30.43F
OSCODA         PTCLDY    -4  -9  77 SW5       30.44F WCI -14
PELLSTON       PTCLDY    -9 -12  87 E3        30.37F
ROGERS CITY    PTCLDY     2  -3  79 S6        30.40F WCI  -9
TRAVERSE CITY  CLEAR      7   1  76 S3        30.40F
$$
MIZ007>008-015-060600-
EASTERN UPPER MICHIGAN

CITY           SKY/WX    TMP DP  RH WIND       PRES   REMARKS
KINROSS        MOCLDY     1   0  92 SW6       30.33F WCI -10
MACKINAC ISLAN PTCLDY     5  -1  76 S12       30.35F WCI -11
NEWBERRY       PTCLDY     1  -2  88 S9        30.31S WCI -14
S. S. MARIE    PTCLDY    -2  -7  79 E5        30.34F WCI -12
MUNISING         N/A      6  -5  60 SW7       30.31F WCI  -6
$$
MIZ004>006-011>014-085-060600-
CENTRAL UPPER MICHIGAN

CITY           SKY/WX    TMP DP  RH WIND       PRES   REMARKS
MANISTIQUE     PTCLDY     9  -3  56 SW7       30.33F WCI  -2
ESCANABA       PTCLDY     7  -8  51 W8        30.36F WCI  -6
MENOMINEE      PTCLDY     7  -9  47 W5        30.38F WCI  -2
SAWYER-GWINN   PTCLDY     4 -12  47 SW7       30.25F WCI  -8
$$
MIZ001>003-009>011-084-060600-
WESTERN UPPER MICHIGAN

CITY           SKY/WX    TMP DP  RH WIND       PRES   REMARKS
IRON MOUNTAIN  PTCLDY     4 -11  50 SW7       30.28F WCI  -8
HOUGHTON       CLEAR      8 -11  41 W14G20    30.20F WCI  -8
COPPER HARBOR    N/A      9  -9  44 W5        30.22F WCI   1
IRONWOOD       CLEAR      5  -4  66 SW13      30.21F WCI -12
$$

ABBREVIATIONS USED IN REMARKS
   TC - TEMPERATURE IN CELSIUS
  WCI - WIND CHILL INDEX
   HX - HEAT INDEX
  VSB - VISIBILITY




USA.gov is the U.S. government's official web portal to all federal, state and local government web resources and services.